CZ-3C DEB, 39356

Orbit data source: Space-Track

CZ-3C DEB, 39356 is space debris in HEO originally from a launch on Sun, 31 Oct 2010 UTC launched from the Xichang Space Center, China (XSC). Debris objects in space refer to the collection of defunct objects orbiting the Earth. Examples of debris include non-operational satellites, rocket bodies, and fragments generated from explosions, collisions, or faulty payload assembly.

Loading next visibility...
Identifier
39356, 2010-057W
Orbit
HEO
Country
Flag of CNCN / PRC
Related business
Manufacturer
CALT
Mission
Spacecraft
Bus & Motor
Unknown
Mass
Unknown
Launch date (UTC)
2010-10-31 (15 years ago)
Launch vehicle
Unknown
Launch site
Xichang Space Center, China (XSC)
Object type
Payload
Rocket body
Debris
Shape & HBR
Unknown shape, 0.3 m
Radar Cross Section
Medium (>0.1 m² and <1 m²)

Expand to show TLE details & history
Last TLE update: 2 days ago

TLE from 2 days ago
0 CZ-3C DEB
1 39356U 10057W   26105.81613625  .00001451  00000-0  45115-2 0  9994
2 39356  20.6726 329.2964 7142320  26.8678 356.9042  2.36777716104776
Epoch: 2026-04-15T19:35Z
TLE epoch observation values (Epoch: 2026-04-15T19:35:14.172Z)
Latitude
-0.00044°
Longitude
-168.51463°
Altitude
715.796 km
Speed
9.778 km/s
True Right ascension
21h 57m 04s
True Declination
0° 00' 02"
Sunlit
Object was in daylight at epoch
Visualization orbit readout
Latitude
Unknown
Longitude
Unknown
Altitude
Unknown
Speed
Unknown
Apparent Right ascension
Unknown
Apparent Declination
Unknown
Sunlit
N/A
Visualization observer readout
Local Sidereal Time
01:44:23
Azimuth
Unknown
Elevation
Unknown
Doppler factor
Unknown
Orbital elements
Apogee altitude
34,390.361 km
Perigee altitude
418.103 km
Semi-major axis
23,782.369 km
Eccentricity
0.71423
Inclination
20.6726°
RAAN
329.2964°
Arg. of periapsis
26.8678°
True anomaly
334.21307°
Mean anomaly
356.9042°
Eccentric anomaly
349.321°
Mean motion
0.59178 °/min
Orbital period
608.33 mins
BSTAR
0.0045115
Loading maneuver chart data...
Computing Atmospheric mass density...
Loading historical data...
Loading historical data...
Loading historical data...
Loading historical data...
Loading historical data...
Loading historical data...
Loading historical data...

Documentation

Showing up to 5 results
|